Total_Precipitation_Accumulation
1.06 0.92 1.52 1.62 1.45 1.31 1.28 1.30 1.32 1.35 1.36 1.32 1.12 0.98 0.83 0.76 0.75 0.71 0.63 0.60 0.66 0.64 0.62 0.58 0.56 0.56 0.50 0.50 0.50 0.52 0.57 0.64 0.68 0.70 0.75 0.79 0.70 0.73 0.97 1.22 1.37 1.70 1.30
0.85 0.92 1.61 1.67 1.47 1.28 1.22 1.24 1.30 1.33 1.39 1.28 1.15 1.02 0.86 0.75 0.70 0.65 0.53 0.49 0.53 0.57 0.55 0.57 0.59 0.59 0.58 0.62 0.67 0.70 0.65 0.62 0.74 0.85 0.97 1.00 0.90 0.85 0.85 1.10 1.27 1.53 1.27
0.87 0.93 1.35 1.72 1.57 1.41 1.29 1.28 1.34 1.32 1.38 1.24 1.16 0.99 0.84 0.71 0.69 0.68 0.59 0.55 0.58 0.53 0.49 0.53 0.63 0.65 0.69 0.71 0.74 0.78 0.72 0.66 0.79 1.02 1.38 1.99 1.44 0.97 0.97 1.07 1.14 1.06 1.13
0.83 0.86 1.21 1.78 1.59 1.50 1.45 1.47 1.38 1.37 1.45 1.26 1.12 0.97 0.84 0.78 0.77 0.78 0.86 0.89 0.75 0.57 0.52 0.52 0.64 0.67 0.65 0.69 0.77 0.74 0.68 0.69 0.88 1.05 1.50 2.06 1.87 1.18 1.13 1.19 1.24 1.05 1.04
0.83 0.93 1.38 1.79 1.56 1.44 1.45 1.51 1.42 1.45 1.43 1.28 1.10 0.90 0.83 0.85 0.93 1.03 1.07 0.96 0.75 0.61 0.57 0.58 0.65 0.69 0.65 0.62 0.71 0.74 0.71 0.79 0.96 1.04 1.48 1.96 2.14 1.54 1.23 1.24 1.27 1.13 1.12
0.96 0.94 1.36 1.75 1.59 1.44 1.41 1.42 1.39 1.37 1.38 1.31 1.09 0.90 0.85 0.84 0.85 0.93 1.01 0.94 0.77 0.64 0.58 0.64 0.70 0.72 0.68 0.65 0.69 0.76 0.75 0.85 0.86 1.12 1.54 1.81 2.06 1.52 1.15 1.16 1.31 1.26 1.28
0.94 0.94 1.22 1.64 1.51 1.30 1.31 1.40 1.45 1.42 1.37 1.29 1.07 0.96 0.94 0.90 0.84 0.90 0.91 0.85 0.70 0.61 0.61 0.67 0.71 0.76 0.71 0.68 0.67 0.68 0.74 0.69 0.67 1.03 1.41 1.73 1.67 1.31 1.14 1.24 1.40 1.38 1.48
0.98 0.88 0.97 1.35 1.43 1.28 1.24 1.28 1.33 1.36 1.35 1.27 1.03 0.93 0.90 0.91 0.88 0.85 0.85 0.81 0.71 0.71 0.72 0.70 0.69 0.74 0.77 0.73 0.69 0.67 0.69 0.59 0.52 0.79 1.13 1.50 1.54 1.40 1.26 1.29 1.43 1.49 1.63
1.06 0.95 0.95 1.14 1.25 1.40 1.41 1.34 1.27 1.28 1.29 1.29 1.09 0.96 0.91 0.82 0.74 0.72 0.72 0.72 0.74 0.82 0.78 0.71 0.67 0.67 0.71 0.73 0.72 0.73 0.70 0.60 0.56 0.74 0.78 1.19 1.41 1.45 1.33 1.32 1.39 1.45 1.65
1.07 0.99 0.96 1.05 1.07 1.06 1.13 1.31 1.36 1.38 1.37 1.36 1.15 1.00 0.93 0.77 0.68 0.69 0.63 0.66 0.73 0.86 0.93 0.84 0.77 0.74 0.74 0.78 0.78 0.76 0.77 0.62 0.55 0.59 0.76 0.90 1.30 1.40 1.30 1.30 1.31 1.36 1.52
0.98 0.89 0.85 0.89 1.00 1.05 1.01 1.13 1.45 1.47 1.49 1.40 1.19 1.06 0.93 0.73 0.64 0.66 0.62 0.79 0.82 0.87 0.94 0.95 0.95 0.92 0.85 0.78 0.83 0.78 0.63 0.56 0.66 0.67 0.75 0.85 1.25 1.39 1.36 1.33 1.36 1.31 1.34
0.96 0.85 0.73 0.71 0.79 0.89 0.95 1.08 1.24 1.21 1.20 1.15 1.27 1.15 1.00 0.94 0.83 0.54 0.61 0.84 1.01 1.04 0.99 0.95 1.05 0.93 0.73 0.58 0.65 0.62 0.45 0.49 0.62 0.66 0.66 0.94 1.27 1.29 1.24 1.27 1.34 1.27 1.24
0.87 0.81 0.67 0.59 0.55 0.60 0.75 0.91 0.98 1.11 1.23 1.16 1.10 1.09 1.06 0.93 0.74 0.61 0.67 0.69 0.75 0.82 0.76 0.79 0.78 0.63 0.55 0.58 0.58 0.48 0.42 0.50 0.60 0.68 0.74 1.11 1.39 1.39 1.20 1.15 1.24 1.23 1.23
0.74 0.76 0.68 0.51 0.44 0.42 0.49 0.58 0.69 0.83 0.99 1.03 0.87 0.81 0.88 0.89 0.78 0.65 0.66 0.66 0.67 0.72 0.81 0.84 0.83 0.73 0.69 0.66 0.62 0.61 0.61 0.64 0.66 0.73 0.90 1.11 1.50 1.43 1.24 1.19 1.26 1.29 1.26
0.69 0.72 0.68 0.54 0.48 0.42 0.43 0.44 0.45 0.64 0.82 0.95 0.96 0.82 0.78 0.80 0.79 0.72 0.62 0.64 0.60 0.64 0.70 0.75 0.77 0.79 0.85 0.82 0.80 0.82 0.84 0.81 0.74 0.73 0.88 1.08 1.50 1.75 1.66 1.51 1.31 1.31 1.30
0.56 0.66 0.67 0.64 0.62 0.53 0.43 0.43 0.44 0.52 0.64 0.73 0.88 0.89 0.83 0.76 0.72 0.75 0.71 0.73 0.73 0.71 0.71 0.71 0.70 0.83 0.88 0.87 0.87 0.87 0.86 0.76 0.75 0.84 0.99 1.04 1.06 1.34 1.79 1.85 1.69 1.54 1.45
0.51 0.54 0.54 0.58 0.66 0.65 0.60 0.55 0.53 0.61 0.64 0.70 0.77 0.77 0.84 0.75 0.69 0.74 0.77 0.79 0.80 0.81 0.79 0.81 0.82 0.89 0.88 0.93 0.96 0.88 0.83 0.78 0.78 0.85 0.91 0.98 0.81 0.81 1.21 1.68 1.86 1.74 1.70
0.45 0.45 0.50 0.49 0.58 0.68 0.73 0.74 0.76 0.77 0.79 0.85 0.82 0.78 0.78 0.73 0.71 0.80 0.82 0.87 0.92 0.84 0.81 0.89 0.95 1.01 1.00 1.05 1.09 0.95 0.79 0.86 0.83 0.84 0.96 0.97 0.91 0.79 0.87 1.05 1.29 1.45 1.76
0.42 0.44 0.50 0.52 0.59 0.67 0.72 0.81 0.90 0.95 1.02 1.15 1.10 1.06 1.00 0.88 0.89 0.97 1.02 1.04 1.06 1.08 1.01 0.91 0.95 1.04 1.15 1.20 1.09 0.99 0.87 0.87 0.89 0.89 1.07 1.07 0.96 0.87 0.93 0.89 0.92 1.01 1.26
0.43 0.45 0.50 0.59 0.68 0.77 0.91 1.12 1.32 1.40 1.56 1.76 1.70 1.56 1.37 1.20 1.17 1.28 1.26 1.21 1.27 1.38 1.41 1.21 1.27 1.22 1.19 1.28 1.14 1.06 1.03 0.97 0.97 1.03 1.08 1.13 1.14 1.00 1.06 1.03 0.95 0.75 0.85
0.36 0.39 0.44 0.51 0.61 0.74 0.94 1.24 1.64 1.86 1.99 2.00 2.02 1.91 1.71 1.49 1.50 1.67 1.64 1.62 1.63 1.63 1.60 1.55 1.71 1.64 1.38 1.30 1.48 1.45 1.31 1.15 1.10 1.07 1.09 1.21 1.29 1.27 1.34 1.30 1.18 0.96 0.79
0.26 0.25 0.35 0.42 0.52 0.67 0.95 1.25 1.57 1.92 1.99 2.01 2.02 1.98 1.85 1.72 1.73 1.77 1.98 2.09 2.06 2.17 2.15 1.98 2.13 2.13 1.76 1.53 1.78 2.07 1.79 1.58 1.20 1.08 1.14 1.15 1.25 1.38 1.46 1.37 1.23 1.08 1.01
0.23 0.19 0.27 0.32 0.47 0.76 1.10 1.41 1.60 1.88 1.98 2.03 2.00 2.01 2.03 1.98 1.89 1.90 2.02 2.20 2.22 2.29 2.39 2.47 2.42 2.52 2.31 1.92 1.80 2.09 1.98 1.84 1.64 1.24 1.15 1.24 1.38 1.46 1.51 1.51 1.38 1.15 1.10
0.20 0.18 0.22 0.29 0.50 0.82 1.15 1.41 1.65 2.00 2.10 2.06 2.09 2.08 2.09 2.11 2.07 2.15 2.17 2.28 2.31 2.33 2.43 2.54 2.51 2.65 2.72 2.33 2.04 1.83 1.66 1.67 1.78 1.55 1.30 1.27 1.44 1.48 1.49 1.53 1.57 1.41 1.24
0.24 0.25 0.29 0.42 0.61 0.86 1.06 1.31 1.68 1.94 2.05 2.19 2.12 2.09 2.10 2.17 2.18 2.22 2.29 2.45 2.45 2.43 2.40 2.61 2.66 2.76 2.69 2.61 2.47 2.30 2.14 1.89 1.53 1.62 1.65 1.50 1.42 1.33 1.40 1.52 1.67 1.61 1.45
0.30 0.35 0.45 0.60 0.72 0.92 1.10 1.30 1.49 1.75 1.88 2.02 2.11 2.06 2.05 2.12 2.22 2.12 2.04 2.18 2.24 2.29 2.27 2.45 2.63 2.77 2.75 2.78 2.70 2.42 2.36 2.22 1.86 1.79 1.67 1.57 1.58 1.40 1.34 1.41 1.46 1.44 1.46